Dauntless Aviation
Greetings, Guest! To participate, [sign up for a free account] or [log in]
Airports Europe Croatia
LDDU
DBV

Dubrovnik

Dubrovnik, CROATIA

Airport Info
Edit

Location

Latitude / Longitude: 42°33'41"N / 18°16'5"E
  42°33.684'N / 18°16.092'E
  42.5614 / 18.2682

Nearby radio navigation aids

CV DUBROVNIK NDB. 117.6° 2.8nm from CV to field.
DBK DUBROVNIK VOR/DME on field.
GR DUBROVNIK NDB. 294.2° 2.9nm from GR to field.
KLP KOLOCEP NDB. 118.0° 12.7nm from KLP to field.

Runway Information

Runway 12 /30

Dimensions: 10827 x 148 ft.
Surface: ASP
 
Runway 12
Runway 30
Latitude: 42.569225 42.555819
Longitude: 18.2484 18.282192
Elevation: 519 ft. 519 ft.
Runway true heading: 117.6 297.6
 

Instrument Procedures

  Aerodrome Chart
  Aircraft Parking/Docking Chart

STARs (Standard Terminal Arrivals)

  STAR - Instrument (STAR) - Rwy 12/30

IAPs (Instrument Approach Procedures)

  ATC Surveillance Minimum Altitude Chart
  ILS Rwy 12
  L Rwy 12
  VOR Rwy 12
  Visual Manoeuvering - Circling Chart (IFR) - Circling Rwy 30
  Visual Operation Chart
  Bird Concentrations
  Assorted Information for LDDU
  Aerodrome Obstacle Chart - Type A - Rwy 12
  Aerodrome Obstacle Chart - Type A - Rwy 30

Departure Procedures

  SID - Instrument (SID) - Rwy 12
  SID - Instrument (SID) - Rwy 30
Satellite photo at:
Airport distance calculator
From:
Weather Reports

METAR

LDDU

LDDU 301500Z 31013KT 4000 TSRA SCT030CB SCT040 19/19 Q1008 NOSIG
LYTV
22.6nm E
LYTV 301500Z 24002KT 9999 FEW030TCU SCT047 24/18 Q1006 TEMPO TS FEW027CB BKN040

TAF

LDDU
TAF COR LDDU 301125Z 3012/3112 14015KT 9999 FEW030 TX25/3111Z TN20/3103Z TEMPO 3012/3020 3000 TSRA SCT012 FEW020CB BKN030 BECMG 3019/3021 09008KT BECMG 3106/3108 16012KT PROB40 TEMPO 3106/3109 TSRA FEW025CB BKN030
LYTV
22.6nm E
TAF LYTV 301100Z 3012/3112 15010KT 9999 SCT030 BKN083 TX28/3013Z TN17/3103Z TEMPO 3012/3112 4000 TSRA FEW027CB BKN030 PROB30 TEMPO 3016/3102 VRB15G25KT 2000 +TSRA SCT026CB BKN030
Safelog

 

Dauntless Aviation

© 2007-2014 Dauntless Aviation, all rights reserved
Information provided via PilotNav comes from a variety of official and unofficial data sources. As errors are possible, do not use PilotNav for primary flight planning purposes. Verify any information that you receive via PilotNav with current and canonical charts and other official documents. The material in this database is subject to database copyrights held by Dauntless Aviation and may not be copied without the express permission of Dauntless Aviation - licenses for use of part of all of this data are available for purchase; enquire via the Dauntless Aviation helpdesk. A number of mechanisms and markers exist in the database to protect against and identify infringement / copyright. Automated queries against this website are stictly prohibited, and all activity is logged and analyzed.